Time,TemperatureF,DewpointF,PressureIn,WindDirection,WindDirectionDegrees,WindSpeedMPH,WindSpeedGustMPH,Humidity,HourlyPrecipIn,Conditions,Clouds,dailyrainin,SoftwareType,DateUTC
2013-02-17 00:00:00,17.1,12.3,30.15,NW,311,6.0,6.0,81,0.00,,OVC060,0.00,VWS V14.01,2013-02-17 05:00:00,
2013-02-17 00:05:00,17.0,12.2,30.15,North,355,4.0,5.0,81,0.00,,OVC060,0.00,VWS V14.01,2013-02-17 05:05:00,
2013-02-17 00:10:00,16.9,11.5,30.15,WNW,297,7.0,9.0,79,0.00,,OVC060,0.00,VWS V14.01,2013-02-17 05:10:00,
2013-02-17 00:15:00,16.8,10.9,30.15,WNW,295,11.0,12.0,77,0.00,,OVC060,0.00,VWS V14.01,2013-02-17 05:15:00,
2013-02-17 00:20:00,16.8,9.7,30.15,NW,311,4.0,9.0,73,0.00,,OVC060,0.00,VWS V14.01,2013-02-17 05:20:00,
2013-02-17 00:25:00,16.7,8.9,30.16,West,281,7.0,10.0,71,0.00,,OVC060,0.00,VWS V14.01,2013-02-17 05:25:00,
2013-02-17 00:30:00,16.4,8.7,30.16,WNW,285,3.0,5.0,71,0.00,,OVC060,0.00,VWS V14.01,2013-02-17 05:30:00,
2013-02-17 00:35:00,16.3,6.6,30.16,WNW,294,5.0,15.0,65,0.00,,OVC060,0.00,VWS V14.01,2013-02-17 05:35:00,
2013-02-17 00:40:00,16.3,6.6,30.16,WNW,294,5.0,9.0,65,0.00,,OVC060,0.00,VWS V14.01,2013-02-17 05:40:00,
2013-02-17 00:45:00,16.0,8.0,30.16,West,270,5.0,8.0,70,0.00,,OVC060,0.00,VWS V14.01,2013-02-17 05:45:00,
2013-02-17 00:50:00,15.6,7.9,30.16,WSW,252,6.0,8.0,71,0.00,,OVC060,0.00,VWS V14.01,2013-02-17 05:50:00,
2013-02-17 00:55:00,15.4,7.7,30.16,West,281,4.0,8.0,71,0.00,,OVC060,0.00,VWS V14.01,2013-02-17 05:55:00,
2013-02-17 01:00:00,15.2,7.8,30.16,WSW,252,3.0,8.0,72,0.00,,OVC060,0.00,VWS V14.01,2013-02-17 06:00:00,
2013-02-17 01:05:00,15.1,7.4,30.17,WNW,285,7.0,9.0,71,0.00,,SCT060,0.00,VWS V14.01,2013-02-17 06:05:00,
2013-02-17 01:10:00,14.9,7.5,30.17,West,274,4.0,6.0,72,0.00,,SCT060,0.00,VWS V14.01,2013-02-17 06:10:00,
2013-02-17 01:15:00,14.8,7.7,30.16,WNW,285,4.0,5.0,73,0.00,,SCT060,0.00,VWS V14.01,2013-02-17 06:15:00,
2013-02-17 01:20:00,14.6,7.2,30.17,West,270,6.0,9.0,72,0.00,,SCT060,0.00,VWS V14.01,2013-02-17 06:20:00,
2013-02-17 01:25:00,14.6,7.2,30.17,West,275,7.0,7.0,72,0.00,,SCT060,0.00,VWS V14.01,2013-02-17 06:25:00,
2013-02-17 01:30:00,14.6,7.2,30.17,West,278,4.0,6.0,72,0.00,,SCT060,0.00,VWS V14.01,2013-02-17 06:30:00,
2013-02-17 01:35:00,14.7,7.0,30.17,West,274,7.0,10.0,71,0.00,,SCT060,0.00,VWS V14.01,2013-02-17 06:35:00,
2013-02-17 01:40:00,14.8,7.1,30.17,WNW,283,6.0,9.0,71,0.00,,SCT060,0.00,VWS V14.01,2013-02-17 06:40:00,
2013-02-17 01:45:00,14.9,6.9,30.16,WNW,298,4.0,9.0,70,0.00,,SCT060,0.00,VWS V14.01,2013-02-17 06:45:00,
2013-02-17 01:50:00,14.8,7.1,30.17,WNW,290,4.0,9.0,71,0.00,,SCT060,0.00,VWS V14.01,2013-02-17 06:50:00,
2013-02-17 01:55:00,14.8,6.8,30.16,WNW,290,7.0,10.0,70,0.00,,SCT060,0.00,VWS V14.01,2013-02-17 06:55:00,
2013-02-17 02:00:00,14.9,7.2,30.17,WSW,252,6.0,10.0,71,0.00,,SCT060,0.00,VWS V14.01,2013-02-17 07:00:00,
2013-02-17 02:05:00,14.8,7.4,30.17,West,260,6.0,8.0,72,0.00,,BKN050,0.00,VWS V14.01,2013-02-17 07:05:00,
2013-02-17 02:10:00,14.7,7.6,30.16,West,276,7.0,10.0,73,0.00,,BKN050,0.00,VWS V14.01,2013-02-17 07:10:00,
2013-02-17 02:15:00,14.7,7.6,30.17,West,260,6.0,10.0,73,0.00,,BKN050,0.00,VWS V14.01,2013-02-17 07:15:00,
2013-02-17 02:20:00,14.7,7.6,30.17,West,276,4.0,7.0,73,0.00,,BKN050,0.00,VWS V14.01,2013-02-17 07:20:00,
2013-02-17 02:25:00,14.6,7.8,30.17,West,274,3.0,5.0,74,0.00,,BKN050,0.00,VWS V14.01,2013-02-17 07:25:00,
2013-02-17 02:30:00,14.6,7.5,30.17,WNW,294,3.0,7.0,73,0.00,,BKN050,0.00,VWS V14.01,2013-02-17 07:30:00,
2013-02-17 02:35:00,14.6,7.5,30.17,WNW,290,3.0,9.0,73,0.00,,BKN050,0.00,VWS V14.01,2013-02-17 07:35:00,
2013-02-17 02:40:00,14.6,7.8,30.17,West,280,3.0,7.0,74,0.00,,BKN050,0.00,VWS V14.01,2013-02-17 07:40:00,
2013-02-17 02:45:00,14.6,7.8,30.17,West,273,8.0,8.0,74,0.00,,BKN050,0.00,VWS V14.01,2013-02-17 07:45:00,
2013-02-17 02:50:00,14.7,7.9,30.17,West,269,5.0,8.0,74,0.00,,BKN050,0.00,VWS V14.01,2013-02-17 07:50:00,
2013-02-17 02:55:00,14.7,7.9,30.17,NW,319,9.0,9.0,74,0.00,,BKN050,0.00,VWS V14.01,2013-02-17 07:55:00,
2013-02-17 03:00:00,14.7,7.6,30.17,WNW,290,5.0,8.0,73,0.00,,BKN050,0.00,VWS V14.01,2013-02-17 08:00:00,
2013-02-17 03:05:00,14.7,7.9,30.17,WNW,289,4.0,9.0,74,0.00,,OVC060,0.00,VWS V14.01,2013-02-17 08:05:00,
2013-02-17 03:10:00,14.7,7.9,30.17,West,278,3.0,7.0,74,0.00,,OVC060,0.00,VWS V14.01,2013-02-17 08:10:00,
2013-02-17 03:15:00,14.7,7.9,30.17,WNW,290,7.0,9.0,74,0.00,,OVC060,0.00,VWS V14.01,2013-02-17 08:15:00,
2013-02-17 03:20:00,14.8,8.0,30.17,WNW,299,7.0,9.0,74,0.00,,OVC060,0.00,VWS V14.01,2013-02-17 08:20:00,
2013-02-17 03:25:00,14.8,8.0,30.17,West,274,5.0,8.0,74,0.00,,OVC060,0.00,VWS V14.01,2013-02-17 08:25:00,
2013-02-17 03:30:00,14.8,8.0,30.17,WNW,291,7.0,10.0,74,0.00,,OVC060,0.00,VWS V14.01,2013-02-17 08:30:00,
2013-02-17 03:35:00,14.8,8.0,30.17,WNW,288,3.0,6.0,74,0.00,,OVC060,0.00,VWS V14.01,2013-02-17 08:35:00,
2013-02-17 03:40:00,14.8,8.0,30.17,WNW,292,3.0,9.0,74,0.00,,OVC060,0.00,VWS V14.01,2013-02-17 08:40:00,
2013-02-17 03:45:00,14.7,7.9,30.17,West,276,6.0,9.0,74,0.00,,OVC060,0.00,VWS V14.01,2013-02-17 08:45:00,
2013-02-17 03:50:00,14.5,8.0,30.17,WNW,295,3.0,7.0,75,0.00,,OVC060,0.00,VWS V14.01,2013-02-17 08:50:00,
2013-02-17 03:55:00,14.4,8.2,30.18,WNW,288,3.0,6.0,76,0.00,,OVC060,0.00,VWS V14.01,2013-02-17 08:55:00,
2013-02-17 04:00:00,14.3,8.1,30.18,WNW,300,5.0,7.0,76,0.00,,OVC060,0.00,VWS V14.01,2013-02-17 09:00:00,
2013-02-17 04:05:00,14.2,8.0,30.18,WNW,288,4.0,6.0,76,0.00,,FEW060,0.00,VWS V14.01,2013-02-17 09:05:00,
2013-02-17 04:10:00,14.1,7.9,30.18,WNW,289,6.0,6.0,76,0.00,,FEW060,0.00,VWS V14.01,2013-02-17 09:10:00,
2013-02-17 04:15:00,14.0,8.1,30.18,West,266,4.0,7.0,77,0.00,,FEW060,0.00,VWS V14.01,2013-02-17 09:15:00,
2013-02-17 04:20:00,13.9,8.0,30.18,WNW,290,4.0,5.0,77,0.00,,FEW060,0.00,VWS V14.01,2013-02-17 09:20:00,
2013-02-17 04:25:00,13.8,7.9,30.18,NW,315,4.0,7.0,77,0.00,,FEW060,0.00,VWS V14.01,2013-02-17 09:25:00,
2013-02-17 04:30:00,13.7,8.1,30.18,West,267,4.0,4.0,78,0.00,,FEW060,0.00,VWS V14.01,2013-02-17 09:30:00,
2013-02-17 04:35:00,13.6,8.0,30.18,West,267,2.0,6.0,78,0.00,,FEW060,0.00,VWS V14.01,2013-02-17 09:35:00,
2013-02-17 04:40:00,13.5,7.9,30.18,WNW,282,3.0,4.0,78,0.00,,FEW060,0.00,VWS V14.01,2013-02-17 09:40:00,
2013-02-17 04:45:00,13.4,7.8,30.18,West,262,6.0,6.0,78,0.00,,FEW060,0.00,VWS V14.01,2013-02-17 09:45:00,
2013-02-17 04:50:00,13.3,7.7,30.19,WSW,250,4.0,5.0,78,0.00,,FEW060,0.00,VWS V14.01,2013-02-17 09:50:00,
2013-02-17 04:55:00,13.2,7.6,30.19,SW,236,3.0,4.0,78,0.00,,FEW060,0.00,VWS V14.01,2013-02-17 09:55:00,
2013-02-17 05:00:00,13.0,7.7,30.19,WNW,291,2.0,4.0,79,0.00,,FEW060,0.00,VWS V14.01,2013-02-17 10:00:00,
2013-02-17 05:05:00,13.0,8.3,30.19,SW,233,4.0,4.0,81,0.00,,SCT027,0.00,VWS V14.01,2013-02-17 10:05:00,
2013-02-17 05:10:00,12.9,7.9,30.19,WSW,252,2.0,4.0,80,0.00,,SCT027,0.00,VWS V14.01,2013-02-17 10:10:00,
2013-02-17 05:15:00,12.7,7.7,30.19,WSW,250,2.0,3.0,80,0.00,,SCT027,0.00,VWS V14.01,2013-02-17 10:15:00,
2013-02-17 05:20:00,12.6,7.6,30.19,West,278,2.0,4.0,80,0.00,,BKN027,0.00,VWS V14.01,2013-02-17 10:20:00,
2013-02-17 05:25:00,12.5,7.8,30.19,West,270,2.0,3.0,81,0.00,,BKN027,0.00,VWS V14.01,2013-02-17 10:25:00,
2013-02-17 05:30:00,12.4,7.7,30.19,WSW,239,3.0,3.0,81,0.00,,BKN027,0.00,VWS V14.01,2013-02-17 10:30:00,
2013-02-17 05:35:00,12.4,8.0,30.20,WNW,293,2.0,4.0,82,0.00,,OVC039,0.00,VWS V14.01,2013-02-17 10:35:00,
2013-02-17 05:40:00,12.2,7.8,30.20,West,264,3.0,4.0,82,0.00,,OVC039,0.00,VWS V14.01,2013-02-17 10:40:00,
2013-02-17 05:45:00,12.0,7.3,30.20,WSW,239,3.0,3.0,81,0.00,,OVC039,0.00,VWS V14.01,2013-02-17 10:45:00,
2013-02-17 05:50:00,11.8,7.4,30.20,West,261,2.0,3.0,82,0.00,,OVC039,0.00,VWS V14.01,2013-02-17 10:50:00,
2013-02-17 05:55:00,11.7,7.3,30.20,WSW,255,2.0,3.0,82,0.00,,OVC039,0.00,VWS V14.01,2013-02-17 10:55:00,
2013-02-17 06:00:00,11.8,7.6,30.20,WSW,248,4.0,4.0,83,0.00,,OVC039,0.00,VWS V14.01,2013-02-17 11:00:00,
2013-02-17 06:05:00,11.8,7.6,30.21,West,277,2.0,3.0,83,0.00,,BKN043,0.00,VWS V14.01,2013-02-17 11:05:00,
2013-02-17 06:10:00,11.8,7.6,30.21,West,268,2.0,4.0,83,0.00,,BKN043,0.00,VWS V14.01,2013-02-17 11:10:00,
2013-02-17 06:15:00,11.6,7.7,30.21,WSW,248,3.0,3.0,84,0.00,,BKN043,0.00,VWS V14.01,2013-02-17 11:15:00,
2013-02-17 06:20:00,11.5,7.6,30.21,WSW,250,2.0,5.0,84,0.00,,BKN043,0.00,VWS V14.01,2013-02-17 11:20:00,
2013-02-17 06:25:00,11.4,7.5,30.22,SW,224,3.0,4.0,84,0.00,,BKN043,0.00,VWS V14.01,2013-02-17 11:25:00,
2013-02-17 06:30:00,11.3,7.4,30.22,WSW,248,5.0,5.0,84,0.00,,BKN043,0.00,VWS V14.01,2013-02-17 11:30:00,
2013-02-17 06:35:00,11.2,7.3,30.22,WSW,252,4.0,5.0,84,0.00,,BKN043,0.00,VWS V14.01,2013-02-17 11:35:00,
2013-02-17 06:40:00,11.3,7.2,30.22,WNW,294,3.0,3.0,83,0.00,,BKN043,0.00,VWS V14.01,2013-02-17 11:40:00,
2013-02-17 06:45:00,11.3,7.2,30.22,NW,315,3.0,4.0,83,0.00,,BKN043,0.00,VWS V14.01,2013-02-17 11:45:00,
2013-02-17 06:50:00,11.4,7.5,30.22,WNW,290,2.0,5.0,84,0.00,,BKN043,0.00,VWS V14.01,2013-02-17 11:50:00,
2013-02-17 06:55:00,11.4,7.5,30.23,WNW,283,1.0,3.0,84,0.00,,BKN043,0.00,VWS V14.01,2013-02-17 11:55:00,
2013-02-17 07:00:00,11.2,7.1,30.23,WSW,252,2.0,2.0,83,0.00,,BKN043,0.00,VWS V14.01,2013-02-17 12:00:00,
2013-02-17 07:05:00,11.1,7.2,30.23,WSW,240,2.0,3.0,84,0.00,,BKN043,0.00,VWS V14.01,2013-02-17 12:05:00,
2013-02-17 07:10:00,11.2,7.6,30.23,West,266,2.0,4.0,85,0.00,,BKN043,0.00,VWS V14.01,2013-02-17 12:10:00,
2013-02-17 07:15:00,11.2,7.6,30.23,WSW,242,3.0,3.0,85,0.00,,BKN043,0.00,VWS V14.01,2013-02-17 12:15:00,
2013-02-17 07:20:00,11.3,7.7,30.23,West,264,2.0,3.0,85,0.00,,BKN043,0.00,VWS V14.01,2013-02-17 12:20:00,
2013-02-17 07:25:00,11.1,7.2,30.23,West,267,2.0,3.0,84,0.00,,BKN043,0.00,VWS V14.01,2013-02-17 12:25:00,
2013-02-17 07:30:00,11.1,7.5,30.23,WSW,249,3.0,3.0,85,0.00,,BKN043,0.00,VWS V14.01,2013-02-17 12:30:00,
2013-02-17 07:35:00,11.2,7.6,30.24,WSW,256,2.0,3.0,85,0.00,,BKN043,0.00,VWS V14.01,2013-02-17 12:35:00,
2013-02-17 07:40:00,11.4,7.8,30.24,WSW,255,3.0,3.0,85,0.00,,BKN043,0.00,VWS V14.01,2013-02-17 12:40:00,
2013-02-17 07:45:00,11.7,8.1,30.24,West,262,2.0,3.0,85,0.00,,BKN043,0.00,VWS V14.01,2013-02-17 12:45:00,
2013-02-17 07:50:00,11.7,7.8,30.24,WSW,250,3.0,3.0,84,0.00,,BKN043,0.00,VWS V14.01,2013-02-17 12:50:00,
2013-02-17 07:55:00,11.9,8.0,30.25,WSW,237,3.0,4.0,84,0.00,,BKN043,0.00,VWS V14.01,2013-02-17 12:55:00,
2013-02-17 08:00:00,12.1,8.5,30.25,WSW,253,1.0,3.0,85,0.00,,BKN043,0.00,VWS V14.01,2013-02-17 13:00:00,
2013-02-17 08:05:00,12.5,8.6,30.25,West,267,3.0,3.0,84,0.00,,,0.00,VWS V14.01,2013-02-17 13:05:00,
2013-02-17 08:10:00,13.0,9.1,30.25,WNW,285,5.0,5.0,84,0.00,,,0.00,VWS V14.01,2013-02-17 13:10:00,
2013-02-17 08:15:00,13.6,9.4,30.25,West,269,2.0,7.0,83,0.00,,,0.00,VWS V14.01,2013-02-17 13:15:00,
2013-02-17 08:20:00,14.0,9.5,30.25,West,263,4.0,9.0,82,0.00,,,0.00,VWS V14.01,2013-02-17 13:20:00,
2013-02-17 08:25:00,14.2,9.4,30.25,WSW,253,6.0,8.0,81,0.00,,,0.00,VWS V14.01,2013-02-17 13:25:00,
2013-02-17 08:30:00,14.4,9.6,30.26,WNW,287,6.0,10.0,81,0.00,,,0.00,VWS V14.01,2013-02-17 13:30:00,
2013-02-17 08:35:00,14.5,9.7,30.26,WNW,300,4.0,9.0,81,0.00,,,0.00,VWS V14.01,2013-02-17 13:35:00,
2013-02-17 08:40:00,14.6,9.8,30.26,West,277,5.0,9.0,81,0.00,,,0.00,VWS V14.01,2013-02-17 13:40:00,
2013-02-17 08:45:00,14.8,10.0,30.26,WSW,257,9.0,10.0,81,0.00,,,0.00,VWS V14.01,2013-02-17 13:45:00,
2013-02-17 08:50:00,15.1,10.3,30.27,West,274,5.0,8.0,81,0.00,,,0.00,VWS V14.01,2013-02-17 13:50:00,
2013-02-17 08:55:00,15.3,10.2,30.27,West,273,10.0,12.0,80,0.00,,,0.00,VWS V14.01,2013-02-17 13:55:00,
2013-02-17 09:00:00,15.5,10.4,30.27,SW,233,9.0,9.0,80,0.00,,,0.00,VWS V14.01,2013-02-17 14:00:00,
2013-02-17 09:05:00,15.7,10.6,30.27,WNW,293,8.0,11.0,80,0.00,,,0.00,VWS V14.01,2013-02-17 14:05:00,
2013-02-17 09:10:00,16.0,10.9,30.27,WNW,283,3.0,7.0,80,0.00,,,0.00,VWS V14.01,2013-02-17 14:10:00,
2013-02-17 09:15:00,16.1,10.8,30.27,NW,305,2.0,9.0,79,0.00,,,0.00,VWS V14.01,2013-02-17 14:15:00,
2013-02-17 09:20:00,16.3,10.9,30.27,West,259,6.0,11.0,79,0.00,,,0.00,VWS V14.01,2013-02-17 14:20:00,
2013-02-17 09:25:00,16.3,10.9,30.28,West,281,9.0,9.0,79,0.00,,,0.00,VWS V14.01,2013-02-17 14:25:00,
2013-02-17 09:30:00,16.6,11.2,30.27,WSW,246,9.0,11.0,79,0.00,,,0.00,VWS V14.01,2013-02-17 14:30:00,
2013-02-17 09:35:00,16.6,11.2,30.28,West,274,9.0,13.0,79,0.00,,,0.00,VWS V14.01,2013-02-17 14:35:00,
2013-02-17 09:40:00,16.6,10.9,30.28,West,280,5.0,11.0,78,0.00,,,0.00,VWS V14.01,2013-02-17 14:40:00,
2013-02-17 09:45:00,16.7,11.1,30.28,WNW,295,10.0,10.0,78,0.00,,,0.00,VWS V14.01,2013-02-17 14:45:00,
2013-02-17 09:50:00,17.0,11.6,30.28,WNW,290,5.0,8.0,79,0.00,,,0.00,VWS V14.01,2013-02-17 14:50:00,
2013-02-17 09:55:00,17.4,11.7,30.28,WNW,294,4.0,8.0,78,0.00,,,0.00,VWS V14.01,2013-02-17 14:55:00,
2013-02-17 10:00:00,17.4,11.4,30.28,WNW,290,7.0,9.0,77,0.00,,,0.00,VWS V14.01,2013-02-17 15:00:00,
2013-02-17 10:05:00,17.2,11.8,30.29,NW,314,5.0,6.0,79,0.00,,,0.00,VWS V14.01,2013-02-17 15:05:00,
2013-02-17 10:10:00,17.8,11.8,30.29,West,278,8.0,8.0,77,0.00,,,0.00,VWS V14.01,2013-02-17 15:10:00,
2013-02-17 10:15:00,17.9,11.6,30.29,NW,304,6.0,11.0,76,0.00,,,0.00,VWS V14.01,2013-02-17 15:15:00,
2013-02-17 10:20:00,17.8,11.5,30.29,West,259,5.0,9.0,76,0.00,,,0.00,VWS V14.01,2013-02-17 15:20:00,
2013-02-17 10:25:00,17.9,11.9,30.29,NW,315,8.0,11.0,77,0.00,,,0.00,VWS V14.01,2013-02-17 15:25:00,
2013-02-17 10:30:00,18.0,11.4,30.29,NW,313,4.0,9.0,75,0.00,,,0.00,VWS V14.01,2013-02-17 15:30:00,
2013-02-17 10:35:00,18.2,11.9,30.29,North,351,8.0,12.0,76,0.00,,,0.00,VWS V14.01,2013-02-17 15:35:00,
2013-02-17 10:40:00,18.1,11.5,30.30,WNW,297,8.0,10.0,75,0.00,,,0.00,VWS V14.01,2013-02-17 15:40:00,
2013-02-17 10:45:00,18.1,11.5,30.29,NW,306,8.0,10.0,75,0.00,,,0.00,VWS V14.01,2013-02-17 15:45:00,
2013-02-17 10:50:00,18.5,11.6,30.30,NW,304,9.0,9.0,74,0.00,,,0.00,VWS V14.01,2013-02-17 15:50:00,
2013-02-17 10:54:00,18.5,11.6,30.30,West,260,6.0,8.0,74,0.00,,,0.00,VWS V14.01,2013-02-17 15:54:00,
2013-02-17 10:59:00,18.6,11.7,30.30,WSW,243,5.0,6.0,74,0.00,,,0.00,VWS V14.01,2013-02-17 15:59:00,
2013-02-17 11:04:00,19.3,12.4,30.30,WSW,243,7.0,9.0,74,0.00,,,0.00,VWS V14.01,2013-02-17 16:04:00,
2013-02-17 11:09:00,19.8,12.9,30.30,NW,316,3.0,5.0,74,0.00,,,0.00,VWS V14.01,2013-02-17 16:09:00,
2013-02-17 11:14:00,20.1,13.2,30.30,West,278,5.0,7.0,74,0.00,,,0.00,VWS V14.01,2013-02-17 16:14:00,
2013-02-17 11:19:00,20.6,13.9,30.31,WNW,301,6.0,10.0,75,0.00,,,0.00,VWS V14.01,2013-02-17 16:19:00,
2013-02-17 11:24:00,20.5,13.5,30.31,SW,226,5.0,6.0,74,0.00,,,0.00,VWS V14.01,2013-02-17 16:24:00,
2013-02-17 11:29:00,20.4,12.8,30.31,WNW,296,5.0,8.0,72,0.00,,,0.00,VWS V14.01,2013-02-17 16:29:00,
2013-02-17 11:34:00,19.9,12.0,30.31,West,271,5.0,8.0,71,0.00,,,0.00,VWS V14.01,2013-02-17 16:34:00,
2013-02-17 11:39:00,20.0,13.1,30.31,West,262,4.0,7.0,74,0.00,,,0.00,VWS V14.01,2013-02-17 16:39:00,
2013-02-17 11:44:00,20.1,12.9,30.31,WSW,238,2.0,9.0,73,0.00,,,0.00,VWS V14.01,2013-02-17 16:44:00,
2013-02-17 11:49:00,20.0,12.1,30.31,North,356,6.0,9.0,71,0.00,,,0.00,VWS V14.01,2013-02-17 16:49:00,
2013-02-17 11:54:00,19.8,12.2,30.31,WNW,301,8.0,9.0,72,0.00,,,0.00,VWS V14.01,2013-02-17 16:54:00,
2013-02-17 11:59:00,19.8,11.6,30.31,West,273,4.0,7.0,70,0.00,,,0.00,VWS V14.01,2013-02-17 16:59:00,
2013-02-17 12:04:00,20.2,11.4,30.31,NW,313,7.0,12.0,68,0.00,,,0.00,VWS V14.01,2013-02-17 17:04:00,
2013-02-17 12:09:00,20.8,11.9,30.31,NW,316,5.0,9.0,68,0.00,,,0.00,VWS V14.01,2013-02-17 17:09:00,
2013-02-17 12:14:00,21.1,12.9,30.31,WNW,288,7.0,7.0,70,0.00,,,0.00,VWS V14.01,2013-02-17 17:14:00,
2013-02-17 12:19:00,20.9,11.0,30.31,NW,315,10.0,12.0,65,0.00,,,0.00,VWS V14.01,2013-02-17 17:19:00,
2013-02-17 12:24:00,20.5,11.0,30.31,WNW,299,3.0,8.0,66,0.00,,,0.00,VWS V14.01,2013-02-17 17:24:00,
2013-02-17 12:29:00,20.7,11.5,30.31,NE,44,6.0,6.0,67,0.00,,,0.00,VWS V14.01,2013-02-17 17:29:00,
2013-02-17 12:34:00,21.6,11.3,30.31,WNW,296,4.0,10.0,64,0.00,,,0.00,VWS V14.01,2013-02-17 17:34:00,
2013-02-17 12:39:00,22.1,11.8,30.31,West,277,8.0,11.0,64,0.00,,,0.00,VWS V14.01,2013-02-17 17:39:00,
2013-02-17 12:44:00,22.4,12.1,30.31,WNW,294,4.0,11.0,64,0.00,,,0.00,VWS V14.01,2013-02-17 17:44:00,
2013-02-17 12:49:00,23.3,13.6,30.30,WSW,253,6.0,7.0,66,0.00,,,0.00,VWS V14.01,2013-02-17 17:49:00,
2013-02-17 12:54:00,22.8,11.4,30.30,West,271,4.0,9.0,61,0.00,,,0.00,VWS V14.01,2013-02-17 17:54:00,
2013-02-17 12:59:00,22.0,9.9,30.30,WNW,291,6.0,13.0,59,0.00,,,0.00,VWS V14.01,2013-02-17 17:59:00,
2013-02-17 13:04:00,21.7,10.7,30.30,NW,311,4.0,10.0,62,0.00,,BKN034,0.00,VWS V14.01,2013-02-17 18:04:00,
2013-02-17 13:09:00,21.7,9.2,30.30,West,281,13.0,13.0,58,0.00,,BKN034,0.00,VWS V14.01,2013-02-17 18:09:00,
2013-02-17 13:14:00,22.1,9.2,30.30,WNW,292,7.0,12.0,57,0.00,,BKN034,0.00,VWS V14.01,2013-02-17 18:14:00,
2013-02-17 13:19:00,22.7,10.9,30.30,WNW,302,2.0,8.0,60,0.00,,BKN034,0.00,VWS V14.01,2013-02-17 18:19:00,
2013-02-17 13:24:00,22.6,10.1,30.30,West,278,5.0,12.0,58,0.00,,BKN034,0.00,VWS V14.01,2013-02-17 18:24:00,
2013-02-17 13:29:00,22.8,9.5,30.30,WSW,252,8.0,9.0,56,0.00,,BKN034,0.00,VWS V14.01,2013-02-17 18:29:00,
2013-02-17 13:34:00,23.2,10.2,30.29,West,278,6.0,15.0,57,0.00,,BKN034,0.00,VWS V14.01,2013-02-17 18:34:00,
2013-02-17 13:39:00,23.7,10.3,30.29,SW,225,7.0,12.0,56,0.00,,BKN034,0.00,VWS V14.01,2013-02-17 18:39:00,
2013-02-17 13:44:00,24.0,11.8,30.29,WNW,295,7.0,7.0,59,0.00,,BKN034,0.00,VWS V14.01,2013-02-17 18:44:00,
2013-02-17 13:49:00,23.7,9.1,30.29,West,280,6.0,14.0,53,0.00,,BKN034,0.00,VWS V14.01,2013-02-17 18:49:00,
2013-02-17 13:54:00,23.2,9.4,30.29,NW,319,7.0,12.0,55,0.00,,BKN034,0.00,VWS V14.01,2013-02-17 18:54:00,
2013-02-17 13:59:00,23.6,9.8,30.29,West,281,9.0,12.0,55,0.00,,BKN034,0.00,VWS V14.01,2013-02-17 18:59:00,
2013-02-17 14:04:00,24.0,7.6,30.29,NW,308,11.0,14.0,49,0.00,,BKN050,0.00,VWS V14.01,2013-02-17 19:04:00,
2013-02-17 14:09:00,24.0,8.5,30.29,West,267,12.0,13.0,51,0.00,,BKN050,0.00,VWS V14.01,2013-02-17 19:09:00,
2013-02-17 14:14:00,23.4,7.5,30.29,SW,225,4.0,12.0,50,0.00,,BKN050,0.00,VWS V14.01,2013-02-17 19:14:00,
2013-02-17 14:19:00,23.2,9.0,30.29,WSW,243,8.0,13.0,54,0.00,,BKN050,0.00,VWS V14.01,2013-02-17 19:19:00,
2013-02-17 14:24:00,23.5,9.3,30.29,West,269,11.0,12.0,54,0.00,,BKN050,0.00,VWS V14.01,2013-02-17 19:24:00,
2013-02-17 14:29:00,23.4,6.6,30.29,WSW,257,6.0,14.0,48,0.00,,BKN050,0.00,VWS V14.01,2013-02-17 19:29:00,
2013-02-17 14:34:00,23.6,8.1,30.29,WNW,290,7.0,11.0,51,0.00,,BKN050,0.00,VWS V14.01,2013-02-17 19:34:00,
2013-02-17 14:39:00,24.0,8.5,30.29,West,264,13.0,15.0,51,0.00,,BKN050,0.00,VWS V14.01,2013-02-17 19:39:00,
2013-02-17 14:44:00,24.6,8.2,30.29,WSW,252,7.0,13.0,49,0.00,,BKN050,0.00,VWS V14.01,2013-02-17 19:44:00,
2013-02-17 14:49:00,25.3,10.6,30.29,West,267,5.0,7.0,53,0.00,,BKN050,0.00,VWS V14.01,2013-02-17 19:49:00,
2013-02-17 14:54:00,25.5,9.0,30.29,WSW,255,11.0,12.0,49,0.00,,BKN050,0.00,VWS V14.01,2013-02-17 19:54:00,
2013-02-17 14:59:00,25.4,8.9,30.29,WSW,239,4.0,10.0,49,0.00,,BKN050,0.00,VWS V14.01,2013-02-17 19:59:00,
2013-02-17 15:04:00,25.7,9.2,30.29,West,262,8.0,13.0,49,0.00,,BKN045,0.00,VWS V14.01,2013-02-17 20:04:00,
2013-02-17 15:09:00,25.6,7.7,30.29,WSW,257,12.0,15.0,46,0.00,,BKN045,0.00,VWS V14.01,2013-02-17 20:09:00,
2013-02-17 15:14:00,25.3,7.4,30.29,WNW,291,5.0,9.0,46,0.00,,BKN045,0.00,VWS V14.01,2013-02-17 20:14:00,
2013-02-17 15:19:00,25.7,9.2,30.29,WSW,249,8.0,9.0,49,0.00,,BKN045,0.00,VWS V14.01,2013-02-17 20:19:00,
2013-02-17 15:24:00,26.0,8.1,30.29,SW,233,5.0,12.0,46,0.00,,BKN045,0.00,VWS V14.01,2013-02-17 20:24:00,
2013-02-17 15:29:00,26.2,7.8,30.29,WNW,303,6.0,13.0,45,0.00,,BKN045,0.00,VWS V14.01,2013-02-17 20:29:00,
2013-02-17 15:34:00,25.8,9.3,30.29,WNW,298,8.0,13.0,49,0.00,,BKN045,0.00,VWS V14.01,2013-02-17 20:34:00,
2013-02-17 15:39:00,25.5,9.5,30.29,NW,315,7.0,12.0,50,0.00,,BKN045,0.00,VWS V14.01,2013-02-17 20:39:00,
2013-02-17 15:44:00,25.7,9.2,30.29,WSW,257,7.0,9.0,49,0.00,,BKN045,0.00,VWS V14.01,2013-02-17 20:44:00,
2013-02-17 15:49:00,26.1,9.1,30.29,NW,320,4.0,8.0,48,0.00,,BKN045,0.00,VWS V14.01,2013-02-17 20:49:00,
2013-02-17 15:54:00,26.3,9.3,30.29,NW,304,9.0,13.0,48,0.00,,BKN045,0.00,VWS V14.01,2013-02-17 20:54:00,
2013-02-17 15:59:00,26.4,9.4,30.29,WSW,252,12.0,14.0,48,0.00,,BKN045,0.00,VWS V14.01,2013-02-17 20:59:00,
2013-02-17 16:04:00,26.4,9.4,30.30,WNW,295,5.0,12.0,48,0.00,,BKN047,0.00,VWS V14.01,2013-02-17 21:04:00,
2013-02-17 16:09:00,25.9,8.9,30.30,NW,309,8.0,12.0,48,0.00,,BKN047,0.00,VWS V14.01,2013-02-17 21:09:00,
2013-02-17 16:14:00,25.9,9.8,30.30,WNW,302,8.0,12.0,50,0.00,,BKN047,0.00,VWS V14.01,2013-02-17 21:14:00,
2013-02-17 16:19:00,26.1,8.2,30.30,West,275,15.0,16.0,46,0.00,,BKN047,0.00,VWS V14.01,2013-02-17 21:19:00,
2013-02-17 16:24:00,25.5,8.1,30.30,NW,310,13.0,15.0,47,0.00,,BKN047,0.00,VWS V14.01,2013-02-17 21:24:00,
2013-02-17 16:29:00,25.3,7.4,30.30,WNW,294,8.0,16.0,46,0.00,,BKN047,0.00,VWS V14.01,2013-02-17 21:29:00,
2013-02-17 16:34:00,24.9,8.5,30.30,NNW,347,2.0,11.0,49,0.00,,BKN047,0.00,VWS V14.01,2013-02-17 21:34:00,
2013-02-17 16:39:00,24.5,8.5,30.30,West,264,9.0,9.0,50,0.00,,BKN047,0.00,VWS V14.01,2013-02-17 21:39:00,
2013-02-17 16:44:00,24.4,8.4,30.30,NW,305,6.0,11.0,50,0.00,,BKN047,0.00,VWS V14.01,2013-02-17 21:44:00,
2013-02-17 16:49:00,24.8,8.8,30.30,NW,307,3.0,7.0,50,0.00,,BKN047,0.00,VWS V14.01,2013-02-17 21:49:00,
2013-02-17 16:54:00,25.1,9.1,30.30,SW,228,4.0,13.0,50,0.00,,BKN047,0.00,VWS V14.01,2013-02-17 21:54:00,
2013-02-17 16:59:00,24.8,8.8,30.30,NW,304,9.0,16.0,50,0.00,,BKN047,0.00,VWS V14.01,2013-02-17 21:59:00,
2013-02-17 17:04:00,24.7,8.7,30.30,NW,314,6.0,10.0,50,0.00,,OVC047,0.00,VWS V14.01,2013-02-17 22:04:00,
2013-02-17 17:09:00,25.3,9.7,30.30,WNW,288,5.0,6.0,51,0.00,,OVC047,0.00,VWS V14.01,2013-02-17 22:09:00,
2013-02-17 17:14:00,25.4,9.8,30.30,NW,311,6.0,7.0,51,0.00,,OVC047,0.00,VWS V14.01,2013-02-17 22:14:00,
2013-02-17 17:19:00,25.1,9.1,30.30,NW,314,7.0,8.0,50,0.00,,OVC047,0.00,VWS V14.01,2013-02-17 22:19:00,
2013-02-17 17:24:00,24.8,9.2,30.30,WNW,290,2.0,6.0,51,0.00,,OVC047,0.00,VWS V14.01,2013-02-17 22:24:00,
2013-02-17 17:29:00,24.7,10.0,30.30,WNW,294,8.0,12.0,53,0.00,,OVC047,0.00,VWS V14.01,2013-02-17 22:29:00,
2013-02-17 17:34:00,24.5,9.8,30.30,NW,326,4.0,6.0,53,0.00,,OVC047,0.00,VWS V14.01,2013-02-17 22:34:00,
2013-02-17 17:39:00,24.3,10.1,30.31,WNW,283,4.0,6.0,54,0.00,,OVC047,0.00,VWS V14.01,2013-02-17 22:39:00,
2013-02-17 17:44:00,24.2,9.6,30.31,NW,324,4.0,8.0,53,0.00,,OVC047,0.00,VWS V14.01,2013-02-17 22:44:00,
2013-02-17 17:49:00,24.2,9.6,30.31,NNW,329,4.0,5.0,53,0.00,,OVC047,0.00,VWS V14.01,2013-02-17 22:49:00,
2013-02-17 17:54:00,24.4,9.7,30.31,NW,316,2.0,6.0,53,0.00,,OVC047,0.00,VWS V14.01,2013-02-17 22:54:00,
2013-02-17 17:59:00,24.2,9.6,30.31,WNW,294,3.0,8.0,53,0.00,,OVC047,0.00,VWS V14.01,2013-02-17 22:59:00,
2013-02-17 18:04:00,23.9,10.1,30.31,NW,319,1.0,4.0,55,0.00,,BKN047,0.00,VWS V14.01,2013-02-17 23:04:00,
2013-02-17 18:09:00,23.6,9.8,30.31,WNW,296,5.0,5.0,55,0.00,,BKN047,0.00,VWS V14.01,2013-02-17 23:09:00,
2013-02-17 18:14:00,23.4,10.0,30.31,NNW,330,2.0,3.0,56,0.00,,BKN047,0.00,VWS V14.01,2013-02-17 23:14:00,
2013-02-17 18:19:00,23.2,9.8,30.31,NNW,332,4.0,5.0,56,0.00,,BKN047,0.00,VWS V14.01,2013-02-17 23:19:00,
2013-02-17 18:24:00,23.0,10.1,30.32,NE,40,3.0,4.0,57,0.00,,BKN047,0.00,VWS V14.01,2013-02-17 23:24:00,
2013-02-17 18:29:00,22.8,9.9,30.32,NW,325,4.0,4.0,57,0.00,,BKN047,0.00,VWS V14.01,2013-02-17 23:29:00,
2013-02-17 18:34:00,22.6,9.7,30.32,NW,322,2.0,4.0,57,0.00,,BKN047,0.00,VWS V14.01,2013-02-17 23:34:00,
2013-02-17 18:39:00,22.4,9.9,30.32,North,8,2.0,2.0,58,0.00,,BKN047,0.00,VWS V14.01,2013-02-17 23:39:00,
2013-02-17 18:44:00,22.2,10.1,30.32,NNW,347,1.0,2.0,59,0.00,,BKN047,0.00,VWS V14.01,2013-02-17 23:44:00,
2013-02-17 18:49:00,22.0,9.9,30.32,NNW,329,0.0,0.0,59,0.00,,BKN047,0.00,VWS V14.01,2013-02-17 23:49:00,
2013-02-17 18:54:00,21.8,10.1,30.32,NNW,330,1.0,1.0,60,0.00,,BKN047,0.00,VWS V14.01,2013-02-17 23:54:00,
2013-02-17 18:59:00,21.7,10.0,30.32,NNW,340,1.0,1.0,60,0.00,,BKN047,0.00,VWS V14.01,2013-02-17 23:59:00,
2013-02-17 19:04:00,21.6,10.2,30.32,NNW,343,0.0,0.0,61,0.00,,CLR,0.00,VWS V14.01,2013-02-18 00:04:00,
2013-02-17 19:09:00,21.3,10.7,30.32,NNW,343,0.0,1.0,63,0.00,,CLR,0.00,VWS V14.01,2013-02-18 00:09:00,
2013-02-17 19:14:00,21.2,10.6,30.32,NNW,342,0.0,1.0,63,0.00,,CLR,0.00,VWS V14.01,2013-02-18 00:14:00,
2013-02-17 19:19:00,21.0,10.0,30.32,NNW,343,0.0,0.0,62,0.00,,CLR,0.00,VWS V14.01,2013-02-18 00:19:00,
2013-02-17 19:24:00,20.6,10.0,30.32,NNW,343,0.0,0.0,63,0.00,,CLR,0.00,VWS V14.01,2013-02-18 00:24:00,
2013-02-17 19:29:00,20.6,10.0,30.32,NNW,343,0.0,0.0,63,0.00,,CLR,0.00,VWS V14.01,2013-02-18 00:29:00,
2013-02-17 19:34:00,20.6,10.0,30.32,NNW,343,0.0,0.0,63,0.00,,CLR,0.00,VWS V14.01,2013-02-18 00:34:00,
2013-02-17 19:39:00,20.1,9.5,30.33,NNW,342,0.0,0.0,63,0.00,,CLR,0.00,VWS V14.01,2013-02-18 00:39:00,
2013-02-17 19:44:00,19.7,9.9,30.33,NNW,342,0.0,0.0,65,0.00,,CLR,0.00,VWS V14.01,2013-02-18 00:44:00,
2013-02-17 19:49:00,19.5,10.0,30.33,NNW,343,0.0,0.0,66,0.00,,CLR,0.00,VWS V14.01,2013-02-18 00:49:00,
2013-02-17 19:54:00,19.4,10.6,30.33,NNW,342,0.0,0.0,68,0.00,,CLR,0.00,VWS V14.01,2013-02-18 00:54:00,
2013-02-17 19:59:00,19.3,10.8,30.33,NNW,343,0.0,0.0,69,0.00,,CLR,0.00,VWS V14.01,2013-02-18 00:59:00,
2013-02-17 20:04:00,19.2,11.0,30.33,NNW,342,0.0,0.0,70,0.00,,CLR,0.00,VWS V14.01,2013-02-18 01:04:00,
2013-02-17 20:09:00,19.0,10.8,30.33,NNW,343,0.0,0.0,70,0.00,,CLR,0.00,VWS V14.01,2013-02-18 01:09:00,
2013-02-17 20:14:00,19.0,10.8,30.33,NNW,342,0.0,0.0,70,0.00,,CLR,0.00,VWS V14.01,2013-02-18 01:14:00,
2013-02-17 20:19:00,19.0,11.5,30.33,NNW,343,0.0,0.0,72,0.00,,CLR,0.00,VWS V14.01,2013-02-18 01:19:00,
2013-02-17 20:24:00,19.0,11.2,30.33,NNW,343,0.0,0.0,71,0.00,,CLR,0.00,VWS V14.01,2013-02-18 01:24:00,
2013-02-17 20:29:00,19.0,11.5,30.33,ESE,103,1.0,1.0,72,0.00,,CLR,0.00,VWS V14.01,2013-02-18 01:29:00,
2013-02-17 20:34:00,18.9,11.1,30.33,East,82,1.0,1.0,71,0.00,,CLR,0.00,VWS V14.01,2013-02-18 01:34:00,
2013-02-17 20:39:00,18.9,11.1,30.33,East,79,2.0,2.0,71,0.00,,CLR,0.00,VWS V14.01,2013-02-18 01:39:00,
2013-02-17 20:44:00,18.9,11.4,30.33,ESE,105,1.0,1.0,72,0.00,,CLR,0.00,VWS V14.01,2013-02-18 01:44:00,
2013-02-17 20:49:00,19.0,11.8,30.33,ESE,111,0.0,1.0,73,0.00,,CLR,0.00,VWS V14.01,2013-02-18 01:49:00,
2013-02-17 20:54:00,18.9,11.7,30.33,ESE,109,0.0,1.0,73,0.00,,CLR,0.00,VWS V14.01,2013-02-18 01:54:00,
2013-02-17 20:59:00,18.7,11.8,30.33,ESE,122,1.0,1.0,74,0.00,,CLR,0.00,VWS V14.01,2013-02-18 01:59:00,
2013-02-17 21:04:00,18.4,11.8,30.33,ESE,111,1.0,1.0,75,0.00,,CLR,0.00,VWS V14.01,2013-02-18 02:04:00,
2013-02-17 21:09:00,18.3,12.0,30.33,ESE,108,1.0,1.0,76,0.00,,CLR,0.00,VWS V14.01,2013-02-18 02:09:00,
2013-02-17 21:14:00,18.3,11.7,30.33,SE,125,1.0,1.0,75,0.00,,CLR,0.00,VWS V14.01,2013-02-18 02:14:00,
2013-02-17 21:19:00,18.1,11.5,30.33,East,80,2.0,2.0,75,0.00,,CLR,0.00,VWS V14.01,2013-02-18 02:19:00,
2013-02-17 21:24:00,18.1,11.8,30.33,ESE,102,2.0,2.0,76,0.00,,CLR,0.00,VWS V14.01,2013-02-18 02:24:00,
2013-02-17 21:29:00,18.1,11.8,30.33,ENE,76,1.0,4.0,76,0.00,,CLR,0.00,VWS V14.01,2013-02-18 02:29:00,
2013-02-17 21:34:00,17.9,11.9,30.33,East,92,2.0,3.0,77,0.00,,CLR,0.00,VWS V14.01,2013-02-18 02:34:00,
2013-02-17 21:39:00,17.8,12.1,30.33,East,86,1.0,2.0,78,0.00,,CLR,0.00,VWS V14.01,2013-02-18 02:39:00,
2013-02-17 21:44:00,17.7,12.0,30.33,East,96,2.0,2.0,78,0.00,,CLR,0.00,VWS V14.01,2013-02-18 02:44:00,
2013-02-17 21:49:00,17.7,12.3,30.33,ENE,62,2.0,3.0,79,0.00,,CLR,0.00,VWS V14.01,2013-02-18 02:49:00,
2013-02-17 21:54:00,17.6,11.9,30.34,SE,133,0.0,1.0,78,0.00,,CLR,0.00,VWS V14.01,2013-02-18 02:54:00,
2013-02-17 21:59:00,17.5,11.8,30.34,East,79,2.0,3.0,78,0.00,,CLR,0.00,VWS V14.01,2013-02-18 02:59:00,
2013-02-17 22:04:00,17.5,12.1,30.34,East,89,2.0,3.0,79,0.00,,CLR,0.00,VWS V14.01,2013-02-18 03:04:00,
2013-02-17 22:09:00,17.4,12.0,30.34,ENE,75,2.0,3.0,79,0.00,,CLR,0.00,VWS V14.01,2013-02-18 03:09:00,
2013-02-17 22:14:00,17.4,12.3,30.34,ENE,77,3.0,3.0,80,0.00,,CLR,0.00,VWS V14.01,2013-02-18 03:14:00,
2013-02-17 22:19:00,17.4,12.3,30.34,East,92,2.0,3.0,80,0.00,,CLR,0.00,VWS V14.01,2013-02-18 03:19:00,
2013-02-17 22:24:00,17.4,12.0,30.34,East,101,2.0,2.0,79,0.00,,CLR,0.00,VWS V14.01,2013-02-18 03:24:00,
2013-02-17 22:29:00,17.3,11.9,30.34,ESE,115,1.0,3.0,79,0.00,,CLR,0.00,VWS V14.01,2013-02-18 03:29:00,
2013-02-17 22:34:00,17.4,12.0,30.34,ESE,111,1.0,3.0,79,0.00,,CLR,0.00,VWS V14.01,2013-02-18 03:34:00,
2013-02-17 22:39:00,17.4,11.7,30.34,ESE,103,1.0,2.0,78,0.00,,CLR,0.00,VWS V14.01,2013-02-18 03:39:00,
2013-02-17 22:44:00,17.3,11.3,30.34,East,90,4.0,4.0,77,0.00,,CLR,0.00,VWS V14.01,2013-02-18 03:44:00,
2013-02-17 22:49:00,17.4,11.1,30.34,ENE,77,2.0,5.0,76,0.00,,CLR,0.00,VWS V14.01,2013-02-18 03:49:00,
2013-02-17 22:54:00,17.3,11.3,30.33,ESE,113,3.0,4.0,77,0.00,,CLR,0.00,VWS V14.01,2013-02-18 03:54:00,
2013-02-17 22:59:00,17.3,11.6,30.34,ESE,110,4.0,5.0,78,0.00,,CLR,0.00,VWS V14.01,2013-02-18 03:59:00,
2013-02-17 23:04:00,17.3,11.6,30.34,ESE,115,4.0,5.0,78,0.00,,CLR,0.00,VWS V14.01,2013-02-18 04:04:00,
2013-02-17 23:09:00,17.2,11.5,30.34,SE,124,2.0,3.0,78,0.00,,CLR,0.00,VWS V14.01,2013-02-18 04:09:00,
2013-02-17 23:14:00,17.2,11.2,30.34,East,85,2.0,4.0,77,0.00,,CLR,0.00,VWS V14.01,2013-02-18 04:14:00,
2013-02-17 23:19:00,17.3,11.1,30.34,East,99,2.0,3.0,76,0.00,,CLR,0.00,VWS V14.01,2013-02-18 04:19:00,
2013-02-17 23:24:00,17.3,11.1,30.34,ESE,122,3.0,4.0,76,0.00,,CLR,0.00,VWS V14.01,2013-02-18 04:24:00,
2013-02-17 23:29:00,17.3,11.1,30.34,NE,56,2.0,3.0,76,0.00,,CLR,0.00,VWS V14.01,2013-02-18 04:29:00,
2013-02-17 23:34:00,17.3,11.1,30.34,East,100,3.0,3.0,76,0.00,,CLR,0.00,VWS V14.01,2013-02-18 04:34:00,
2013-02-17 23:39:00,17.2,10.9,30.34,ESE,108,3.0,3.0,76,0.00,,CLR,0.00,VWS V14.01,2013-02-18 04:39:00,
2013-02-17 23:44:00,17.2,10.9,30.34,ESE,108,3.0,4.0,76,0.00,,CLR,0.00,VWS V14.01,2013-02-18 04:44:00,
2013-02-17 23:49:00,17.2,10.9,30.35,ESE,102,1.0,4.0,76,0.00,,CLR,0.00,VWS V14.01,2013-02-18 04:49:00,
2013-02-17 23:54:00,17.2,10.9,30.35,ESE,102,2.0,3.0,76,0.00,,CLR,0.00,VWS V14.01,2013-02-18 04:54:00,
2013-02-17 23:59:00,17.2,10.9,30.35,East,89,0.0,3.0,76,0.00,,CLR,0.00,VWS V14.01,2013-02-18 04:59:00,